Time,TemperatureF,DewpointF,PressureIn,WindDirection,WindDirectionDegrees,WindSpeedMPH,WindSpeedGustMPH,Humidity,HourlyPrecipIn,Conditions,Clouds,dailyrainin,SolarRadiationWatts/m^2,SoftwareType,DateUTC
2013-05-17 00:00:00,72.4,72.4,29.88,East,95,7.0,13.0,100,0.00,,,0.00,0.0,WeatherDisplay:10.37,2013-05-17 05:00:00,
2013-05-17 00:05:00,72.4,72.4,29.87,East,98,6.0,12.0,100,0.00,,,0.00,1.0,WeatherDisplay:10.37,2013-05-17 05:05:00,
2013-05-17 00:10:00,72.4,72.4,29.87,East,100,7.0,12.0,100,0.00,,,0.00,1.0,WeatherDisplay:10.37,2013-05-17 05:10:00,
2013-05-17 00:15:00,72.4,72.4,29.88,East,100,5.0,10.0,100,0.00,,,0.00,1.0,WeatherDisplay:10.37,2013-05-17 05:15:00,
2013-05-17 00:20:00,72.3,72.3,29.88,East,99,8.0,12.0,100,0.00,,,0.00,0.0,WeatherDisplay:10.37,2013-05-17 05:20:00,
2013-05-17 00:25:00,72.3,72.3,29.88,East,97,8.0,10.0,100,0.00,,,0.00,0.0,WeatherDisplay:10.37,2013-05-17 05:25:00,
2013-05-17 00:30:00,72.3,72.3,29.88,East,93,7.0,9.0,100,0.00,,,0.00,0.0,WeatherDisplay:10.37,2013-05-17 05:30:00,
2013-05-17 00:35:00,72.3,72.3,29.88,East,92,7.0,9.0,100,0.00,,,0.00,0.0,WeatherDisplay:10.37,2013-05-17 05:35:00,
2013-05-17 00:40:00,72.3,72.3,29.88,East,93,6.0,8.0,100,0.00,,,0.00,0.0,WeatherDisplay:10.37,2013-05-17 05:40:00,
2013-05-17 00:45:00,72.3,72.3,29.88,East,94,7.0,8.0,100,0.00,,,0.00,0.0,WeatherDisplay:10.37,2013-05-17 05:45:00,
2013-05-17 00:50:00,72.3,72.3,29.88,East,100,6.0,8.0,100,0.00,,,0.00,0.0,WeatherDisplay:10.37,2013-05-17 05:50:00,
2013-05-17 00:55:00,72.3,72.3,29.87,ESE,111,6.0,8.0,100,0.00,,,0.00,0.0,WeatherDisplay:10.37,2013-05-17 05:55:00,
2013-05-17 01:00:00,72.3,72.3,29.87,ESE,115,5.0,7.0,100,0.00,,,0.00,0.0,WeatherDisplay:10.37,2013-05-17 06:00:00,
2013-05-17 01:05:00,72.3,72.3,29.87,ESE,117,5.0,8.0,100,0.00,,,0.00,0.0,WeatherDisplay:10.37,2013-05-17 06:05:00,
2013-05-17 01:10:00,72.4,72.4,29.87,East,101,4.6,4.6,100,0.00,CLR,,0.00,1.0,WeatherDisplay:10.37,2013-05-17 06:10:00,
2013-05-17 01:15:00,72.4,72.4,29.87,ESE,117,5.0,8.0,100,0.00,,,0.00,0.0,WeatherDisplay:10.37,2013-05-17 06:15:00,
2013-05-17 01:20:00,72.4,72.4,29.87,ESE,108,5.0,7.0,100,0.00,,,0.00,0.0,WeatherDisplay:10.37,2013-05-17 06:20:00,
2013-05-17 01:25:00,72.2,72.2,29.87,ESE,108,3.0,6.0,100,0.00,,,0.00,0.0,WeatherDisplay:10.37,2013-05-17 06:25:00,
2013-05-17 01:30:00,72.1,72.1,29.88,ESE,116,5.0,5.0,100,0.00,,,0.00,1.0,WeatherDisplay:10.37,2013-05-17 06:30:00,
2013-05-17 01:35:00,72.0,72.0,29.88,ESE,116,3.0,5.0,100,0.00,,,0.00,1.0,WeatherDisplay:10.37,2013-05-17 06:35:00,
2013-05-17 01:40:00,72.0,72.0,29.88,SE,125,5.0,10.0,100,0.00,,,0.00,1.0,WeatherDisplay:10.37,2013-05-17 06:40:00,
2013-05-17 01:45:00,72.0,72.0,29.88,SE,146,5.0,9.0,100,0.00,,,0.00,0.0,WeatherDisplay:10.37,2013-05-17 06:45:00,
2013-05-17 01:50:00,72.1,72.1,29.88,SSE,160,6.0,9.0,100,0.00,,,0.00,0.0,WeatherDisplay:10.37,2013-05-17 06:50:00,
2013-05-17 01:55:00,72.1,72.1,29.87,SSE,162,7.0,12.0,100,0.00,,,0.00,0.0,WeatherDisplay:10.37,2013-05-17 06:55:00,
2013-05-17 02:00:00,72.1,72.1,29.87,SSE,159,6.0,10.0,100,0.00,,,0.00,0.0,WeatherDisplay:10.37,2013-05-17 07:00:00,
2013-05-17 02:05:00,72.1,72.1,29.87,SSE,152,7.0,10.0,100,0.00,,,0.00,1.0,WeatherDisplay:10.37,2013-05-17 07:05:00,
2013-05-17 02:10:00,72.2,72.2,29.87,SSE,150,6.0,8.0,100,0.00,,,0.00,1.0,WeatherDisplay:10.37,2013-05-17 07:10:00,
2013-05-17 02:15:00,72.2,72.2,29.87,SSE,147,6.0,9.0,100,0.00,,,0.00,1.0,WeatherDisplay:10.37,2013-05-17 07:15:00,
2013-05-17 02:20:00,72.2,72.2,29.87,SE,138,6.0,7.0,100,0.00,,,0.00,0.0,WeatherDisplay:10.37,2013-05-17 07:20:00,
2013-05-17 02:25:00,72.3,72.3,29.87,SE,134,6.0,10.0,100,0.00,,,0.00,1.0,WeatherDisplay:10.37,2013-05-17 07:25:00,
2013-05-17 02:30:00,72.3,72.3,29.87,SE,142,7.0,10.0,100,0.00,,,0.00,0.0,WeatherDisplay:10.37,2013-05-17 07:30:00,
2013-05-17 02:35:00,72.4,72.4,29.87,SSE,148,6.0,12.0,100,0.00,,,0.00,0.0,WeatherDisplay:10.37,2013-05-17 07:35:00,
2013-05-17 02:40:00,72.4,72.4,29.87,SSE,151,6.0,12.0,100,0.00,,,0.00,1.0,WeatherDisplay:10.37,2013-05-17 07:40:00,
2013-05-17 02:45:00,72.4,72.4,29.87,SSE,154,6.0,11.0,100,0.00,,,0.00,0.0,WeatherDisplay:10.37,2013-05-17 07:45:00,
2013-05-17 02:50:00,72.3,72.3,29.87,SSE,157,6.0,9.0,100,0.00,,,0.00,1.0,WeatherDisplay:10.37,2013-05-17 07:50:00,
2013-05-17 02:55:00,72.3,72.3,29.87,SSE,166,7.0,10.0,100,0.00,,,0.00,0.0,WeatherDisplay:10.37,2013-05-17 07:55:00,
2013-05-17 03:00:00,72.3,72.3,29.87,South,169,7.0,12.0,100,0.00,,,0.00,0.0,WeatherDisplay:10.37,2013-05-17 08:00:00,
2013-05-17 03:05:00,72.3,72.3,29.88,South,170,9.0,13.0,100,0.00,,,0.00,1.0,WeatherDisplay:10.37,2013-05-17 08:05:00,
2013-05-17 03:10:00,72.3,72.3,29.88,SSW,194,9.2,9.2,100,0.00,CLR,,0.00,1.0,WeatherDisplay:10.37,2013-05-17 08:10:00,
2013-05-17 03:15:00,72.3,72.3,29.87,South,180,8.0,14.0,100,0.00,,,0.00,1.0,WeatherDisplay:10.37,2013-05-17 08:15:00,
2013-05-17 03:20:00,72.4,72.4,29.88,South,185,10.0,14.0,100,0.00,,,0.00,0.0,WeatherDisplay:10.37,2013-05-17 08:20:00,
2013-05-17 03:25:00,72.4,72.4,29.87,South,170,15.0,15.0,100,0.00,CLR,,0.00,1.0,WeatherDisplay:10.37,2013-05-17 08:25:00,
2013-05-17 03:30:00,72.5,72.5,29.87,South,190,15.0,15.0,100,0.00,CLR,,0.00,1.0,WeatherDisplay:10.37,2013-05-17 08:30:00,
2013-05-17 03:35:00,72.5,72.5,29.87,SSW,196,9.2,9.2,100,0.00,CLR,,0.00,1.0,WeatherDisplay:10.37,2013-05-17 08:35:00,
2013-05-17 03:41:00,72.5,72.5,29.87,South,183,9.2,9.2,100,0.00,CLR,,0.00,1.0,WeatherDisplay:10.37,2013-05-17 08:41:00,
2013-05-17 03:46:00,72.6,72.6,29.87,SSE,160,15.0,15.0,100,0.00,CLR,,0.00,1.0,WeatherDisplay:10.37,2013-05-17 08:46:00,
2013-05-17 03:51:00,72.6,72.6,29.87,South,186,11.5,11.5,100,0.00,CLR,,0.00,1.0,WeatherDisplay:10.37,2013-05-17 08:51:00,
2013-05-17 03:56:00,72.6,72.6,29.87,SSE,165,11.5,11.5,100,0.00,CLR,,0.00,1.0,WeatherDisplay:10.37,2013-05-17 08:56:00,
2013-05-17 04:01:00,72.7,72.7,29.87,SSE,160,8.1,8.1,100,0.00,CLR,,0.00,1.0,WeatherDisplay:10.37,2013-05-17 09:01:00,
2013-05-17 04:06:00,72.6,72.6,29.87,SSE,162,6.9,6.9,100,0.00,CLR,,0.00,1.0,WeatherDisplay:10.37,2013-05-17 09:06:00,
2013-05-17 04:12:00,72.6,72.6,29.87,SSE,160,8.1,8.1,100,0.00,CLR,,0.00,1.0,WeatherDisplay:10.37,2013-05-17 09:12:00,
2013-05-17 04:17:00,72.6,72.6,29.87,South,169,10.8,10.8,100,0.00,CLR,,0.00,1.0,WeatherDisplay:10.37,2013-05-17 09:17:00,
2013-05-17 04:22:00,72.7,72.7,29.88,South,177,6.9,6.9,100,0.00,CLR,,0.00,1.0,WeatherDisplay:10.37,2013-05-17 09:22:00,
2013-05-17 04:27:00,72.7,72.7,29.88,South,171,7.5,7.5,100,0.00,CLR,,0.00,1.0,WeatherDisplay:10.37,2013-05-17 09:27:00,
2013-05-17 04:32:00,72.7,72.7,29.88,SSW,194,8.1,8.1,100,0.00,CLR,,0.00,1.0,WeatherDisplay:10.37,2013-05-17 09:32:00,
2013-05-17 04:37:00,72.7,72.7,29.88,South,186,9.6,9.6,100,0.00,CLR,,0.00,1.0,WeatherDisplay:10.37,2013-05-17 09:37:00,
2013-05-17 04:42:00,72.7,72.7,29.88,South,171,10.4,10.4,100,0.00,CLR,,0.00,1.0,WeatherDisplay:10.37,2013-05-17 09:42:00,
2013-05-17 04:48:00,72.8,72.8,29.89,South,186,9.2,9.2,100,0.00,CLR,,0.00,1.0,WeatherDisplay:10.37,2013-05-17 09:48:00,
2013-05-17 04:53:00,72.8,72.8,29.89,South,176,11.5,11.5,100,0.00,CLR,,0.00,1.0,WeatherDisplay:10.37,2013-05-17 09:53:00,
2013-05-17 04:58:00,72.7,72.7,29.88,South,179,10.4,10.4,100,0.00,CLR,,0.00,2.0,WeatherDisplay:10.37,2013-05-17 09:58:00,
2013-05-17 05:03:00,72.7,72.7,29.89,South,171,8.1,8.1,100,0.00,CLR,,0.00,2.0,WeatherDisplay:10.37,2013-05-17 10:03:00,
2013-05-17 05:08:00,72.7,72.7,29.88,SSE,168,9.2,9.2,100,0.00,CLR,,0.00,2.0,WeatherDisplay:10.37,2013-05-17 10:08:00,
2013-05-17 05:13:00,72.7,72.7,29.88,SE,133,8.1,8.1,100,0.00,CLR,,0.00,2.0,WeatherDisplay:10.37,2013-05-17 10:13:00,
2013-05-17 05:18:00,72.7,72.7,29.88,SSE,167,9.2,9.2,100,0.00,CLR,,0.00,3.0,WeatherDisplay:10.37,2013-05-17 10:18:00,
2013-05-17 05:24:00,72.6,72.6,29.88,SE,138,9.2,9.2,100,0.00,CLR,,0.00,3.0,WeatherDisplay:10.37,2013-05-17 10:24:00,
2013-05-17 05:29:00,72.6,72.6,29.88,SSE,152,6.9,6.9,100,0.00,CLR,,0.00,3.0,WeatherDisplay:10.37,2013-05-17 10:29:00,
2013-05-17 05:34:00,72.5,72.5,29.88,SSE,165,6.9,6.9,100,0.00,CLR,,0.00,3.0,WeatherDisplay:10.37,2013-05-17 10:34:00,
2013-05-17 05:39:00,72.5,72.5,29.88,SSE,152,8.1,8.1,100,0.00,CLR,,0.00,4.0,WeatherDisplay:10.37,2013-05-17 10:39:00,
2013-05-17 05:44:00,72.5,72.5,29.89,SSE,154,8.1,8.1,100,0.00,CLR,,0.00,3.0,WeatherDisplay:10.37,2013-05-17 10:44:00,
2013-05-17 05:49:00,72.5,72.5,29.89,SSE,149,8.1,8.1,100,0.00,CLR,,0.00,1.0,WeatherDisplay:10.37,2013-05-17 10:49:00,
2013-05-17 05:55:00,72.5,72.5,29.89,SE,144,9.3,9.3,100,0.00,CLR,,0.00,1.0,WeatherDisplay:10.37,2013-05-17 10:55:00,
2013-05-17 06:00:00,72.4,72.4,29.89,SSE,151,5.0,10.0,100,0.00,OVC,,0.00,0.0,WeatherDisplay:10.37,2013-05-17 11:00:00,
2013-05-17 06:05:00,72.4,72.4,29.89,SSE,150,7.0,9.0,100,0.00,OVC,,0.00,0.0,WeatherDisplay:10.37,2013-05-17 11:05:00,
2013-05-17 06:10:00,72.4,72.4,29.89,SSE,148,6.0,9.0,100,0.00,OVC,,0.00,0.0,WeatherDisplay:10.37,2013-05-17 11:10:00,
2013-05-17 06:15:00,72.4,72.4,29.89,SSE,148,6.0,10.0,100,0.00,OVC,,0.00,-1.0,WeatherDisplay:10.37,2013-05-17 11:15:00,
2013-05-17 06:20:00,72.3,72.3,29.89,SE,143,6.0,13.0,100,0.00,OVC,,0.00,0.0,WeatherDisplay:10.37,2013-05-17 11:20:00,
2013-05-17 06:25:00,72.3,72.3,29.89,SE,137,7.0,9.0,100,0.00,OVC,,0.00,0.0,WeatherDisplay:10.37,2013-05-17 11:25:00,
2013-05-17 06:30:00,72.3,72.3,29.90,SE,136,5.0,7.0,100,0.00,OVC,,0.00,0.0,WeatherDisplay:10.37,2013-05-17 11:30:00,
2013-05-17 06:35:00,72.2,72.2,29.89,SE,131,5.0,9.0,100,0.00,OVC,,0.00,1.0,WeatherDisplay:10.37,2013-05-17 11:35:00,
2013-05-17 06:40:00,72.2,72.2,29.90,SE,127,5.0,8.0,100,0.00,OVC,,0.00,2.0,WeatherDisplay:10.37,2013-05-17 11:40:00,
2013-05-17 06:45:00,72.1,72.1,29.90,SE,125,5.0,8.0,100,0.00,OVC,,0.00,3.0,WeatherDisplay:10.37,2013-05-17 11:45:00,
2013-05-17 06:50:00,72.1,72.1,29.90,SE,126,6.0,9.0,100,0.00,OVC,,0.00,4.0,WeatherDisplay:10.37,2013-05-17 11:50:00,
2013-05-17 06:55:00,72.1,72.1,29.91,SE,125,5.0,7.0,100,0.00,OVC,,0.00,4.0,WeatherDisplay:10.37,2013-05-17 11:55:00,
2013-05-17 07:00:00,72.1,72.1,29.91,SE,127,6.0,10.0,100,0.00,OVC,,0.00,5.0,WeatherDisplay:10.37,2013-05-17 12:00:00,
2013-05-17 07:05:00,72.1,72.1,29.91,SE,129,5.0,7.0,100,0.00,OVC,,0.00,8.0,WeatherDisplay:10.37,2013-05-17 12:05:00,
2013-05-17 07:10:00,72.1,72.1,29.91,SE,127,3.0,8.0,100,0.00,OVC,,0.00,9.0,WeatherDisplay:10.37,2013-05-17 12:10:00,
2013-05-17 07:15:00,72.2,72.2,29.91,SE,124,5.0,9.0,100,0.00,OVC,,0.00,12.0,WeatherDisplay:10.37,2013-05-17 12:15:00,
2013-05-17 07:20:00,72.2,72.2,29.91,ESE,122,5.0,9.0,100,0.00,OVC,,0.00,16.0,WeatherDisplay:10.37,2013-05-17 12:20:00,
2013-05-17 07:25:00,72.2,72.2,29.92,ESE,117,5.0,9.0,100,0.00,OVC,,0.00,16.0,WeatherDisplay:10.37,2013-05-17 12:25:00,
2013-05-17 07:30:00,72.2,72.2,29.91,ESE,117,5.0,10.0,100,0.00,OVC,,0.00,26.0,WeatherDisplay:10.37,2013-05-17 12:30:00,
2013-05-17 07:35:00,72.3,72.3,29.91,SE,125,6.0,13.0,100,0.00,OVC,,0.00,24.0,WeatherDisplay:10.37,2013-05-17 12:35:00,
2013-05-17 07:40:00,72.3,72.3,29.92,SE,127,6.0,9.0,100,0.00,OVC,,0.00,28.0,WeatherDisplay:10.37,2013-05-17 12:40:00,
2013-05-17 07:45:00,72.3,72.3,29.92,SE,128,5.0,10.0,100,0.00,OVC,,0.00,24.0,WeatherDisplay:10.37,2013-05-17 12:45:00,
2013-05-17 07:50:00,72.3,72.3,29.92,SE,139,6.0,9.0,100,0.00,OVC,,0.00,31.0,WeatherDisplay:10.37,2013-05-17 12:50:00,
2013-05-17 07:55:00,72.3,72.3,29.92,SSE,149,6.0,9.0,100,0.00,OVC,,0.00,58.0,WeatherDisplay:10.37,2013-05-17 12:55:00,
2013-05-17 08:00:00,72.4,72.4,29.92,SSE,154,7.0,10.0,100,0.00,OVC,,0.00,86.0,WeatherDisplay:10.37,2013-05-17 13:00:00,
2013-05-17 08:05:00,72.5,72.5,29.92,SSE,156,5.0,10.0,100,0.00,OVC,,0.00,104.0,WeatherDisplay:10.37,2013-05-17 13:05:00,
2013-05-17 08:10:00,72.7,72.7,29.92,SSE,162,11.5,11.5,100,0.00,OVC,,0.00,160.0,WeatherDisplay:10.37,2013-05-17 13:10:00,
2013-05-17 08:15:00,72.8,72.8,29.92,SSE,158,8.0,12.0,100,0.00,OVC,,0.00,166.0,WeatherDisplay:10.37,2013-05-17 13:15:00,
2013-05-17 08:20:00,73.0,73.0,29.92,SSE,157,6.0,12.0,100,0.00,OVC,,0.00,134.0,WeatherDisplay:10.37,2013-05-17 13:20:00,
2013-05-17 08:25:00,73.0,73.0,29.92,SSE,153,6.0,10.0,100,0.00,OVC,,0.00,146.0,WeatherDisplay:10.37,2013-05-17 13:25:00,
2013-05-17 08:30:00,73.1,73.1,29.92,SSE,155,7.0,12.0,100,0.00,OVC,,0.00,135.0,WeatherDisplay:10.37,2013-05-17 13:30:00,
2013-05-17 08:35:00,73.2,73.2,29.92,SSE,151,9.0,13.0,100,0.00,OVC,,0.00,150.0,WeatherDisplay:10.37,2013-05-17 13:35:00,
2013-05-17 08:40:00,73.3,73.3,29.92,SE,146,6.0,13.0,100,0.00,OVC,,0.00,287.0,WeatherDisplay:10.37,2013-05-17 13:40:00,
2013-05-17 08:45:00,73.7,73.7,29.92,SE,146,6.0,13.0,100,0.00,OVC,,0.00,261.0,WeatherDisplay:10.37,2013-05-17 13:45:00,
2013-05-17 08:50:00,73.8,73.8,29.93,SSE,152,9.0,14.0,100,0.00,OVC,,0.00,254.0,WeatherDisplay:10.37,2013-05-17 13:50:00,
2013-05-17 08:55:00,73.9,73.9,29.93,SSE,156,9.0,16.0,100,0.00,OVC,,0.00,219.0,WeatherDisplay:10.37,2013-05-17 13:55:00,
2013-05-17 09:00:00,73.8,73.8,29.93,SSE,159,8.0,18.0,100,0.00,OVC,,0.00,186.0,WeatherDisplay:10.37,2013-05-17 14:00:00,
2013-05-17 09:05:00,73.9,73.9,29.92,SSE,160,7.0,17.0,100,0.00,OVC,,0.00,208.0,WeatherDisplay:10.37,2013-05-17 14:05:00,
2013-05-17 09:10:00,74.1,74.1,29.93,SSE,158,6.0,12.0,100,0.00,OVC,,0.00,215.0,WeatherDisplay:10.37,2013-05-17 14:10:00,
2013-05-17 09:15:00,74.1,74.1,29.92,SSE,157,7.0,14.0,100,0.00,OVC,,0.00,196.0,WeatherDisplay:10.37,2013-05-17 14:15:00,
2013-05-17 09:20:00,74.3,74.3,29.92,SSE,154,8.0,13.0,100,0.00,OVC,,0.00,272.0,WeatherDisplay:10.37,2013-05-17 14:20:00,
2013-05-17 09:25:00,74.5,74.5,29.92,SSE,157,6.0,15.0,100,0.00,OVC,,0.00,422.0,WeatherDisplay:10.37,2013-05-17 14:25:00,
2013-05-17 09:30:00,74.8,74.8,29.92,SSE,158,8.0,12.0,100,0.00,OVC,,0.00,629.0,WeatherDisplay:10.37,2013-05-17 14:30:00,
2013-05-17 09:35:00,74.8,74.8,29.92,SSE,167,12.0,16.0,100,0.00,OVC,,0.00,377.0,WeatherDisplay:10.37,2013-05-17 14:35:00,
2013-05-17 09:40:00,75.1,75.1,29.92,SSE,168,9.0,16.0,100,0.00,OVC,,0.00,366.0,WeatherDisplay:10.37,2013-05-17 14:40:00,
2013-05-17 09:45:00,75.3,75.3,29.92,SSE,168,8.0,20.0,100,0.00,OVC,,0.00,392.0,WeatherDisplay:10.37,2013-05-17 14:45:00,
2013-05-17 09:50:00,75.3,75.3,29.92,SSE,164,9.0,20.0,100,0.00,OVC,,0.00,318.0,WeatherDisplay:10.37,2013-05-17 14:50:00,
2013-05-17 09:55:00,75.6,75.6,29.91,South,169,12.0,16.0,100,0.00,OVC,,0.00,295.0,WeatherDisplay:10.37,2013-05-17 14:55:00,
2013-05-17 10:00:00,75.8,75.8,29.91,South,172,9.0,19.0,100,0.00,OVC,,0.00,299.0,WeatherDisplay:10.37,2013-05-17 15:00:00,
2013-05-17 10:05:00,76.1,76.1,29.91,SSW,192,13.8,13.8,100,0.00,OVC,,0.00,279.0,WeatherDisplay:10.37,2013-05-17 15:05:00,
2013-05-17 10:10:00,76.3,76.3,29.91,South,180,9.0,17.0,100,0.00,OVC,,0.00,287.0,WeatherDisplay:10.37,2013-05-17 15:10:00,
2013-05-17 10:15:00,76.7,76.7,29.91,South,183,8.0,18.0,100,0.00,OVC,,0.00,316.0,WeatherDisplay:10.37,2013-05-17 15:15:00,
2013-05-17 10:20:00,76.9,76.9,29.91,South,190,15.0,23.0,100,0.00,OVC,,0.00,315.0,WeatherDisplay:10.37,2013-05-17 15:20:00,
2013-05-17 10:25:00,77.2,77.2,29.91,SSW,193,17.0,25.0,100,0.00,OVC,,0.00,417.0,WeatherDisplay:10.37,2013-05-17 15:25:00,
2013-05-17 10:30:00,77.9,77.9,29.91,South,188,9.0,26.0,100,0.00,OVC,,0.00,289.0,WeatherDisplay:10.37,2013-05-17 15:30:00,
2013-05-17 10:35:00,78.3,77.4,29.91,South,184,10.0,25.0,97,0.00,OVC,,0.00,378.0,WeatherDisplay:10.37,2013-05-17 15:35:00,
2013-05-17 10:40:00,78.9,77.4,29.91,South,184,10.0,21.0,95,0.00,OVC,,0.00,896.0,WeatherDisplay:10.37,2013-05-17 15:40:00,
2013-05-17 10:45:00,79.6,77.4,29.91,South,185,13.0,22.0,93,0.00,OVC,,0.00,1046.0,WeatherDisplay:10.37,2013-05-17 15:45:00,
2013-05-17 10:50:00,80.2,76.7,29.91,South,171,25.3,25.3,89,0.00,OVC,,0.00,1023.0,WeatherDisplay:10.37,2013-05-17 15:50:00,
2013-05-17 10:55:00,80.7,76.5,29.91,South,183,21.0,29.0,87,0.00,OVC,,0.00,886.0,WeatherDisplay:10.37,2013-05-17 15:55:00,
2013-05-17 11:00:00,81.3,76.0,29.90,South,186,15.0,31.0,84,0.00,OVC,,0.00,884.0,WeatherDisplay:10.37,2013-05-17 16:00:00,
2013-05-17 11:05:00,81.7,76.0,29.90,South,188,18.0,26.0,83,0.00,OVC,,0.00,911.0,WeatherDisplay:10.37,2013-05-17 16:05:00,
2013-05-17 11:10:00,82.1,76.1,29.91,South,190,18.0,26.0,82,0.00,OVC,,0.00,893.0,WeatherDisplay:10.37,2013-05-17 16:10:00,
2013-05-17 11:15:00,82.0,75.2,29.91,South,190,18.0,30.0,80,0.00,OVC,,0.00,918.0,WeatherDisplay:10.37,2013-05-17 16:15:00,
2013-05-17 11:20:00,82.3,75.5,29.91,SSW,194,9.0,27.0,80,0.00,OVC,,0.00,900.0,WeatherDisplay:10.37,2013-05-17 16:20:00,
2013-05-17 11:25:00,82.3,75.5,29.91,SSW,200,17.0,24.0,80,0.00,OVC,,0.00,937.0,WeatherDisplay:10.37,2013-05-17 16:25:00,
2013-05-17 11:30:00,82.6,75.8,29.91,SSW,197,14.0,25.0,80,0.00,OVC,,0.00,1014.0,WeatherDisplay:10.37,2013-05-17 16:30:00,
2013-05-17 11:35:00,83.3,76.5,29.92,SSW,193,12.0,22.0,80,0.00,OVC,,0.00,1047.0,WeatherDisplay:10.37,2013-05-17 16:35:00,
2013-05-17 11:40:00,83.6,76.4,29.91,SSW,194,10.0,17.0,79,0.00,OVC,,0.00,470.0,WeatherDisplay:10.37,2013-05-17 16:40:00,
2013-05-17 11:45:00,83.9,76.3,29.91,SSW,195,15.0,23.0,78,0.00,OVC,,0.00,1044.0,WeatherDisplay:10.37,2013-05-17 16:45:00,
2013-05-17 11:50:00,84.2,76.2,29.91,SSW,194,15.0,25.0,77,0.00,OVC,,0.00,1060.0,WeatherDisplay:10.37,2013-05-17 16:50:00,
2013-05-17 11:55:00,84.4,75.6,29.91,SSW,196,10.0,23.0,75,0.00,OVC,,0.00,1021.0,WeatherDisplay:10.37,2013-05-17 16:55:00,
2013-05-17 12:00:00,84.6,77.0,29.91,SSW,201,9.0,17.0,78,0.00,OVC,,0.00,993.0,WeatherDisplay:10.37,2013-05-17 17:00:00,
2013-05-17 12:05:00,84.6,75.8,29.91,SSW,203,17.0,24.0,75,0.00,OVC,,0.00,970.0,WeatherDisplay:10.37,2013-05-17 17:05:00,
2013-05-17 12:10:00,84.5,76.1,29.90,SSW,203,15.0,24.0,76,0.00,OVC,,0.00,966.0,WeatherDisplay:10.37,2013-05-17 17:10:00,
2013-05-17 12:15:00,84.5,76.9,29.91,SSW,205,10.0,16.0,78,0.00,OVC,,0.00,1005.0,WeatherDisplay:10.37,2013-05-17 17:15:00,
2013-05-17 12:20:00,84.7,76.7,29.91,SSW,206,12.0,19.0,77,0.00,OVC,,0.00,957.0,WeatherDisplay:10.37,2013-05-17 17:20:00,
2013-05-17 12:25:00,85.2,76.8,29.91,South,187,16.1,16.1,76,0.00,CLR,,0.00,963.0,WeatherDisplay:10.37,2013-05-17 17:25:00,
2013-05-17 12:30:00,86.0,77.2,29.90,SSW,199,13.0,22.0,75,0.00,CLR,,0.00,958.0,WeatherDisplay:10.37,2013-05-17 17:30:00,
2013-05-17 12:35:00,86.8,76.6,29.90,SSW,193,9.0,22.0,72,0.00,CLR,,0.00,959.0,WeatherDisplay:10.37,2013-05-17 17:35:00,
2013-05-17 12:40:00,87.4,76.9,29.90,South,190,10.0,22.0,71,0.00,CLR,,0.00,966.0,WeatherDisplay:10.37,2013-05-17 17:40:00,
2013-05-17 12:45:00,87.5,77.0,29.90,SSW,199,8.0,20.0,71,0.00,CLR,,0.00,963.0,WeatherDisplay:10.37,2013-05-17 17:45:00,
2013-05-17 12:50:00,87.4,75.9,29.90,SSW,204,12.0,16.0,69,0.00,CLR,,0.00,963.0,WeatherDisplay:10.37,2013-05-17 17:50:00,
2013-05-17 12:55:00,87.7,76.3,29.90,SSW,194,12.0,20.0,69,0.00,CLR,,0.00,956.0,WeatherDisplay:10.37,2013-05-17 17:55:00,
2013-05-17 13:00:00,88.3,75.9,29.90,South,190,13.0,21.0,67,0.00,CLR,,0.00,959.0,WeatherDisplay:10.37,2013-05-17 18:00:00,
2013-05-17 13:05:00,88.5,76.2,29.89,South,186,9.0,17.0,67,0.00,CLR,,0.00,955.0,WeatherDisplay:10.37,2013-05-17 18:05:00,
2013-05-17 13:10:00,89.2,76.8,29.90,South,182,5.0,15.0,67,0.00,CLR,,0.00,955.0,WeatherDisplay:10.37,2013-05-17 18:10:00,
2013-05-17 13:15:00,89.6,76.8,29.90,South,174,10.0,17.0,66,0.00,CLR,,0.00,942.0,WeatherDisplay:10.37,2013-05-17 18:15:00,
2013-05-17 13:20:00,89.7,75.9,29.89,South,169,8.0,16.0,64,0.00,CLR,,0.00,955.0,WeatherDisplay:10.37,2013-05-17 18:20:00,
2013-05-17 13:25:00,90.1,76.3,29.88,SSE,165,10.0,16.0,64,0.00,CLR,,0.00,952.0,WeatherDisplay:10.37,2013-05-17 18:25:00,
2013-05-17 13:30:00,89.1,75.3,29.87,SSE,163,10.0,17.0,64,0.00,CLR,,0.00,960.0,WeatherDisplay:10.37,2013-05-17 18:30:00,
2013-05-17 13:35:00,89.4,77.0,29.89,South,176,7.0,21.0,67,0.00,CLR,,0.00,958.0,WeatherDisplay:10.37,2013-05-17 18:35:00,
2013-05-17 13:40:00,89.3,76.4,29.88,South,180,8.0,13.0,66,0.00,CLR,,0.00,940.0,WeatherDisplay:10.37,2013-05-17 18:40:00,
2013-05-17 13:45:00,89.4,76.6,29.87,South,171,8.0,15.0,66,0.00,CLR,,0.00,952.0,WeatherDisplay:10.37,2013-05-17 18:45:00,
2013-05-17 13:50:00,89.5,77.1,29.90,SSE,154,15.0,15.0,67,0.00,CLR,,0.00,952.0,WeatherDisplay:10.37,2013-05-17 18:50:00,
2013-05-17 13:55:00,89.9,77.0,29.88,South,175,10.0,21.0,66,0.00,CLR,,0.00,947.0,WeatherDisplay:10.37,2013-05-17 18:55:00,
2013-05-17 14:00:00,90.2,76.9,29.86,South,185,9.0,20.0,65,0.00,CLR,,0.00,949.0,WeatherDisplay:10.37,2013-05-17 19:00:00,
2013-05-17 14:05:00,89.7,75.9,29.86,South,186,10.0,17.0,64,0.00,CLR,,0.00,923.0,WeatherDisplay:10.37,2013-05-17 19:05:00,
2013-05-17 14:10:00,89.8,76.9,29.85,South,179,7.0,17.0,66,0.00,CLR,,0.00,521.0,WeatherDisplay:10.37,2013-05-17 19:10:00,
2013-05-17 14:15:00,89.6,76.7,29.85,SSE,162,9.0,16.0,66,0.00,CLR,,0.00,993.0,WeatherDisplay:10.37,2013-05-17 19:15:00,
2013-05-17 14:20:00,89.7,77.7,29.84,South,169,13.0,18.0,68,0.00,CLR,,0.00,995.0,WeatherDisplay:10.37,2013-05-17 19:20:00,
2013-05-17 14:25:00,89.7,76.9,29.85,SSE,167,10.0,16.0,66,0.00,CLR,,0.00,944.0,WeatherDisplay:10.37,2013-05-17 19:25:00,
2013-05-17 14:30:00,89.3,76.0,29.84,SSE,162,8.0,20.0,65,0.00,CLR,,0.00,917.0,WeatherDisplay:10.37,2013-05-17 19:30:00,
2013-05-17 14:35:00,90.1,77.2,29.84,SSE,165,12.0,18.0,66,0.00,CLR,,0.00,933.0,WeatherDisplay:10.37,2013-05-17 19:35:00,
2013-05-17 14:40:00,90.0,77.6,29.85,South,173,8.0,17.0,67,0.00,CLR,,0.00,901.0,WeatherDisplay:10.37,2013-05-17 19:40:00,
2013-05-17 14:45:00,90.8,77.9,29.83,South,170,15.0,15.0,66,0.00,CLR,,0.00,930.0,WeatherDisplay:10.37,2013-05-17 19:45:00,
2013-05-17 14:50:00,90.8,77.4,29.83,South,174,9.0,16.0,65,0.00,CLR,,0.00,889.0,WeatherDisplay:10.37,2013-05-17 19:50:00,
2013-05-17 14:55:00,90.3,77.4,29.84,South,178,9.0,19.0,66,0.00,CLR,,0.00,968.0,WeatherDisplay:10.37,2013-05-17 19:55:00,
2013-05-17 15:00:00,90.0,76.6,29.84,SSE,163,7.0,16.0,65,0.00,CLR,,0.00,888.0,WeatherDisplay:10.37,2013-05-17 20:00:00,
2013-05-17 15:05:00,90.1,76.2,29.83,SSE,161,14.0,20.0,64,0.00,CLR,,0.00,910.0,WeatherDisplay:10.37,2013-05-17 20:05:00,
2013-05-17 15:10:00,90.9,78.0,29.82,South,172,10.0,17.0,66,0.00,BKN,,0.00,276.0,WeatherDisplay:10.37,2013-05-17 20:10:00,
2013-05-17 15:15:00,90.1,76.8,29.83,South,174,9.0,15.0,65,0.00,CLR,,0.00,916.0,WeatherDisplay:10.37,2013-05-17 20:15:00,
2013-05-17 15:20:00,90.6,78.2,29.82,SSE,165,6.0,14.0,67,0.00,BKN,,0.00,267.0,WeatherDisplay:10.37,2013-05-17 20:20:00,
2013-05-17 15:25:00,89.9,77.0,29.82,SSE,161,12.7,12.7,66,0.00,CLR,,0.00,884.0,WeatherDisplay:10.37,2013-05-17 20:25:00,
2013-05-17 15:30:00,90.6,77.7,29.82,SSE,164,8.0,14.0,66,0.00,CLR,,0.00,865.0,WeatherDisplay:10.37,2013-05-17 20:30:00,
2013-05-17 15:35:00,91.1,77.7,29.82,SSE,166,8.0,16.0,65,0.00,CLR,,0.00,867.0,WeatherDisplay:10.37,2013-05-17 20:35:00,
2013-05-17 15:40:00,90.3,76.9,29.82,SSE,157,16.1,16.1,65,0.00,CLR,,0.00,885.0,WeatherDisplay:10.37,2013-05-17 20:40:00,
2013-05-17 15:45:00,90.0,76.6,29.82,SSE,158,8.0,16.0,65,0.00,CLR,,0.00,840.0,WeatherDisplay:10.37,2013-05-17 20:45:00,
2013-05-17 15:50:00,89.8,76.4,29.82,SSE,153,10.0,17.0,65,0.00,CLR,,0.00,808.0,WeatherDisplay:10.37,2013-05-17 20:50:00,
2013-05-17 15:55:00,89.9,76.6,29.81,SSE,158,13.0,19.0,65,0.00,CLR,,0.00,765.0,WeatherDisplay:10.37,2013-05-17 20:55:00,
2013-05-17 16:00:00,89.7,76.4,29.81,SSE,157,9.0,15.0,65,0.00,CLR,,0.00,764.0,WeatherDisplay:10.37,2013-05-17 21:00:00,
2013-05-17 16:05:00,90.3,76.0,29.81,SSE,165,12.0,18.0,63,0.00,CLR,,0.00,769.0,WeatherDisplay:10.37,2013-05-17 21:05:00,
2013-05-17 16:10:00,90.7,76.8,29.81,South,173,8.1,8.1,64,0.00,CLR,,0.00,774.0,WeatherDisplay:10.37,2013-05-17 21:10:00,
2013-05-17 16:15:00,90.9,77.1,29.81,SSE,163,9.0,15.0,64,0.00,CLR,,0.00,778.0,WeatherDisplay:10.37,2013-05-17 21:15:00,
2013-05-17 16:20:00,90.8,77.4,29.81,SSE,157,7.0,14.0,65,0.00,SCT,,0.00,563.0,WeatherDisplay:10.37,2013-05-17 21:20:00,
2013-05-17 16:25:00,90.4,77.0,29.80,ESE,108,10.4,10.4,65,0.00,CLR,,0.00,798.0,WeatherDisplay:10.37,2013-05-17 21:25:00,
2013-05-17 16:30:00,90.7,77.3,29.81,SSE,150,8.0,17.0,65,0.00,FEW,,0.00,713.0,WeatherDisplay:10.37,2013-05-17 21:30:00,
2013-05-17 16:35:00,90.1,76.7,29.80,South,176,12.7,12.7,65,0.00,OVC,,0.00,283.0,WeatherDisplay:10.37,2013-05-17 21:35:00,
2013-05-17 16:40:00,89.7,76.8,29.80,SSE,148,7.0,12.0,66,0.00,FEW,,0.00,731.0,WeatherDisplay:10.37,2013-05-17 21:40:00,
2013-05-17 16:45:00,89.6,76.7,29.80,SSE,155,10.0,16.0,66,0.00,SCT,,0.00,668.0,WeatherDisplay:10.37,2013-05-17 21:45:00,
2013-05-17 16:50:00,89.3,76.9,29.80,SSE,148,11.5,11.5,67,0.00,SCT,,0.00,661.0,WeatherDisplay:10.37,2013-05-17 21:50:00,
2013-05-17 16:55:00,89.1,77.2,29.80,SSE,148,12.0,16.0,68,0.00,BKN,,0.00,412.0,WeatherDisplay:10.37,2013-05-17 21:55:00,
2013-05-17 17:00:00,89.4,77.4,29.80,SSE,151,12.0,17.0,68,0.00,SCT,,0.00,647.0,WeatherDisplay:10.37,2013-05-17 22:00:00,
2013-05-17 17:05:00,89.6,77.2,29.80,SSE,159,7.0,15.0,67,0.00,SCT,,0.00,610.0,WeatherDisplay:10.37,2013-05-17 22:05:00,
2013-05-17 17:10:00,89.9,77.5,29.79,SSE,162,8.0,14.0,67,0.00,SCT,,0.00,567.0,WeatherDisplay:10.37,2013-05-17 22:10:00,
2013-05-17 17:15:00,89.7,76.8,29.79,SE,144,16.1,16.1,66,0.00,SCT,,0.00,593.0,WeatherDisplay:10.37,2013-05-17 22:15:00,
2013-05-17 17:20:00,89.6,77.2,29.79,SSE,150,8.0,16.0,67,0.00,SCT,,0.00,583.0,WeatherDisplay:10.37,2013-05-17 22:20:00,
2013-05-17 17:25:00,89.5,77.1,29.79,SSE,153,12.0,16.0,67,0.00,BKN,,0.00,545.0,WeatherDisplay:10.37,2013-05-17 22:25:00,
2013-05-17 17:30:00,89.5,76.6,29.79,SSE,154,13.0,16.0,66,0.00,BKN,,0.00,502.0,WeatherDisplay:10.37,2013-05-17 22:30:00,
2013-05-17 17:35:00,89.7,77.3,29.79,SSE,154,7.0,15.0,67,0.00,BKN,,0.00,527.0,WeatherDisplay:10.37,2013-05-17 22:35:00,
2013-05-17 17:40:00,89.5,76.7,29.80,SSE,152,15.0,20.0,66,0.00,OVC,,0.00,306.0,WeatherDisplay:10.37,2013-05-17 22:40:00,
2013-05-17 17:45:00,89.1,76.3,29.79,SSE,151,14.0,20.0,66,0.00,OVC,,0.00,312.0,WeatherDisplay:10.37,2013-05-17 22:45:00,
2013-05-17 17:50:00,88.9,76.6,29.79,SSE,152,10.0,18.0,67,0.00,BKN,,0.00,501.0,WeatherDisplay:10.37,2013-05-17 22:50:00,
2013-05-17 17:55:00,88.9,76.5,29.80,SSE,156,8.0,17.0,67,0.00,OVC,,0.00,126.0,WeatherDisplay:10.37,2013-05-17 22:55:00,
2013-05-17 18:00:00,88.5,76.6,29.78,SSE,164,6.0,15.0,68,0.00,OVC,,0.00,96.0,WeatherDisplay:10.37,2013-05-17 23:00:00,
2013-05-17 18:05:00,88.0,76.1,29.78,SSE,167,8.0,16.0,68,0.00,OVC,,0.00,112.0,WeatherDisplay:10.37,2013-05-17 23:05:00,
2013-05-17 18:10:00,87.7,76.2,29.79,SSE,163,8.0,13.0,69,0.00,OVC,,0.00,117.0,WeatherDisplay:10.37,2013-05-17 23:10:00,
2013-05-17 18:15:00,87.4,76.4,29.79,South,185,9.2,9.2,70,0.00,OVC,,0.00,126.0,WeatherDisplay:10.37,2013-05-17 23:15:00,
2013-05-17 18:20:00,87.2,76.2,29.79,SSE,162,7.0,12.0,70,0.00,OVC,,0.00,136.0,WeatherDisplay:10.37,2013-05-17 23:20:00,
2013-05-17 18:25:00,87.0,76.0,29.80,South,187,5.8,5.8,70,0.00,OVC,,0.00,135.0,WeatherDisplay:10.37,2013-05-17 23:25:00,
2013-05-17 18:30:00,86.9,76.4,29.80,SSE,161,6.0,9.0,71,0.00,OVC,,0.00,136.0,WeatherDisplay:10.37,2013-05-17 23:30:00,
2013-05-17 18:35:00,86.8,76.3,29.79,SSE,162,5.0,10.0,71,0.00,OVC,,0.00,121.0,WeatherDisplay:10.37,2013-05-17 23:35:00,
2013-05-17 18:40:00,86.6,76.1,29.80,SSE,164,10.5,10.5,71,0.00,OVC,,0.00,110.0,WeatherDisplay:10.37,2013-05-17 23:40:00,
2013-05-17 18:45:00,86.4,75.9,29.80,SSE,165,7.0,12.0,71,0.00,OVC,,0.00,105.0,WeatherDisplay:10.37,2013-05-17 23:45:00,
2013-05-17 18:50:00,86.3,75.8,29.80,SSE,166,6.0,12.0,71,0.00,OVC,,0.00,97.0,WeatherDisplay:10.37,2013-05-17 23:50:00,
2013-05-17 18:55:00,86.2,76.1,29.80,South,179,8.1,8.1,72,0.00,OVC,,0.00,89.0,WeatherDisplay:10.37,2013-05-17 23:55:00,
2013-05-17 19:00:00,86.0,75.9,29.80,SSE,156,7.0,10.0,72,0.00,OVC,,0.00,78.0,WeatherDisplay:10.37,2013-05-18 00:00:00,
2013-05-17 19:05:00,85.8,76.6,29.81,SSE,158,5.0,8.0,74,0.00,OVC,,0.00,70.0,WeatherDisplay:10.37,2013-05-18 00:05:00,
2013-05-17 19:10:00,85.6,76.8,29.80,SSE,163,6.9,6.9,75,0.00,OVC,,0.00,61.0,WeatherDisplay:10.37,2013-05-18 00:10:00,
2013-05-17 19:15:00,85.4,77.0,29.81,SSE,158,5.0,8.0,76,0.00,OVC,,0.00,53.0,WeatherDisplay:10.37,2013-05-18 00:15:00,
2013-05-17 19:20:00,85.2,77.2,29.80,SSE,157,7.0,8.0,77,0.00,OVC,,0.00,45.0,WeatherDisplay:10.37,2013-05-18 00:20:00,
2013-05-17 19:25:00,84.8,76.8,29.80,SSE,156,6.0,10.0,77,0.00,OVC,,0.00,39.0,WeatherDisplay:10.37,2013-05-18 00:25:00,
2013-05-17 19:30:00,84.7,77.1,29.81,SSE,155,5.0,8.0,78,0.00,OVC,,0.00,33.0,WeatherDisplay:10.37,2013-05-18 00:30:00,
2013-05-17 19:35:00,84.5,77.3,29.81,SSE,152,6.0,7.0,79,0.00,OVC,,0.00,27.0,WeatherDisplay:10.37,2013-05-18 00:35:00,
2013-05-17 19:40:00,84.4,77.9,29.81,SE,143,5.0,7.0,81,0.00,OVC,,0.00,22.0,WeatherDisplay:10.37,2013-05-18 00:40:00,
2013-05-17 19:45:00,84.2,78.1,29.81,SE,141,5.7,5.7,82,0.00,OVC,,0.00,17.0,WeatherDisplay:10.37,2013-05-18 00:45:00,
2013-05-17 19:50:00,84.0,78.3,29.81,SE,140,5.8,5.8,83,0.00,OVC,,0.00,11.0,WeatherDisplay:10.37,2013-05-18 00:50:00,
2013-05-17 19:55:00,83.8,78.1,29.81,SE,135,5.8,5.8,83,0.00,OVC,,0.00,8.0,WeatherDisplay:10.37,2013-05-18 00:55:00,
2013-05-17 20:00:00,83.5,78.2,29.81,SE,145,6.0,6.0,84,0.00,OVC,,0.00,5.0,WeatherDisplay:10.37,2013-05-18 01:00:00,
2013-05-17 20:06:00,83.2,78.2,29.81,SSE,151,6.9,6.9,85,0.00,OVC,,0.00,4.0,WeatherDisplay:10.37,2013-05-18 01:06:00,
2013-05-17 20:11:00,83.0,78.0,29.80,South,172,6.9,6.9,85,0.00,OVC,,0.00,4.0,WeatherDisplay:10.37,2013-05-18 01:11:00,
2013-05-17 20:16:00,82.7,78.1,29.87,SSE,156,8.1,8.1,86,0.00,OVC,,0.00,2.0,WeatherDisplay:10.37,2013-05-18 01:16:00,
2013-05-17 20:21:00,82.5,77.9,29.81,SSE,148,8.1,8.1,86,0.00,OVC,,0.00,1.0,WeatherDisplay:10.37,2013-05-18 01:21:00,
2013-05-17 20:26:00,82.4,77.8,29.88,SE,135,8.1,8.1,86,0.00,OVC,,0.00,1.0,WeatherDisplay:10.37,2013-05-18 01:26:00,
2013-05-17 20:32:00,82.3,77.7,29.88,South,171,5.8,5.8,86,0.00,OVC,,0.00,1.0,WeatherDisplay:10.37,2013-05-18 01:32:00,
2013-05-17 20:37:00,82.2,77.6,29.91,SW,221,3.5,3.5,86,0.00,OVC,,0.00,1.0,WeatherDisplay:10.37,2013-05-18 01:37:00,
2013-05-17 20:42:00,82.0,77.7,29.92,WNW,283,4.6,4.6,87,0.00,OVC,,0.00,1.0,WeatherDisplay:10.37,2013-05-18 01:42:00,
2013-05-17 20:47:00,81.9,78.0,29.91,South,174,4.8,4.8,88,0.00,OVC,,0.00,1.0,WeatherDisplay:10.37,2013-05-18 01:47:00,
2013-05-17 20:52:00,81.8,77.9,29.92,South,188,4.6,4.6,88,0.00,CLR,,0.00,1.0,WeatherDisplay:10.37,2013-05-18 01:52:00,
2013-05-17 20:58:00,81.6,77.7,29.91,SSE,156,4.6,5.1,88,0.00,CLR,,0.00,1.0,WeatherDisplay:10.37,2013-05-18 01:58:00,
2013-05-17 21:03:00,81.6,77.7,29.84,SSE,160,8.1,8.1,88,0.00,CLR,,0.00,0.0,WeatherDisplay:10.37,2013-05-18 02:03:00,
2013-05-17 21:08:00,81.6,77.7,29.90,SSE,162,15.0,15.0,88,0.00,CLR,,0.00,1.0,WeatherDisplay:10.37,2013-05-18 02:08:00,
2013-05-17 21:13:00,81.5,77.6,29.89,South,174,18.4,18.4,88,0.00,CLR,,0.00,1.0,WeatherDisplay:10.37,2013-05-18 02:13:00,
2013-05-17 21:18:00,81.3,77.7,29.89,SSE,163,19.6,19.6,89,0.00,CLR,,0.00,1.0,WeatherDisplay:10.37,2013-05-18 02:18:00,
2013-05-17 21:23:00,81.2,77.6,29.82,SSW,208,19.6,19.6,89,0.00,CLR,,0.00,1.0,WeatherDisplay:10.37,2013-05-18 02:23:00,
2013-05-17 21:28:00,81.1,77.5,29.90,South,186,17.3,17.3,89,0.00,CLR,,0.00,1.0,WeatherDisplay:10.37,2013-05-18 02:28:00,
2013-05-17 21:33:00,81.1,77.5,29.83,South,186,15.0,15.0,89,0.00,CLR,,0.00,1.0,WeatherDisplay:10.37,2013-05-18 02:33:00,
2013-05-17 21:39:00,81.1,77.5,29.83,SSE,168,16.1,16.1,89,0.00,CLR,,0.00,1.0,WeatherDisplay:10.37,2013-05-18 02:39:00,
2013-05-17 21:44:00,81.2,77.3,29.92,SW,223,10.4,10.4,88,0.00,CLR,,0.00,1.0,WeatherDisplay:10.37,2013-05-18 02:44:00,
2013-05-17 21:49:00,81.2,77.3,29.85,South,189,6.9,6.9,88,0.00,CLR,,0.00,1.0,WeatherDisplay:10.37,2013-05-18 02:49:00,
2013-05-17 21:54:00,81.2,77.6,29.84,South,182,7.2,7.2,89,0.00,CLR,,0.00,1.0,WeatherDisplay:10.37,2013-05-18 02:54:00,
2013-05-17 21:59:00,81.0,77.4,29.84,East,87,6.9,6.9,89,0.00,CLR,,0.00,1.0,WeatherDisplay:10.37,2013-05-18 02:59:00,
2013-05-17 22:04:00,80.9,77.4,29.83,SSE,151,17.3,17.3,89,0.00,CLR,,0.00,1.0,WeatherDisplay:10.37,2013-05-18 03:04:00,
2013-05-17 22:09:00,81.0,77.4,29.90,SE,145,11.5,11.5,89,0.00,CLR,,0.00,1.0,WeatherDisplay:10.37,2013-05-18 03:09:00,
2013-05-17 22:15:00,81.1,77.2,29.89,SE,137,16.1,16.1,88,0.00,CLR,,0.00,1.0,WeatherDisplay:10.37,2013-05-18 03:15:00,
2013-05-17 22:20:00,81.2,77.3,29.84,SE,143,10.0,15.0,88,0.00,,,0.00,0.0,WeatherDisplay:10.37,2013-05-18 03:20:00,
2013-05-17 22:25:00,81.0,77.5,29.84,SE,145,14.0,23.0,89,0.00,,,0.00,0.0,WeatherDisplay:10.37,2013-05-18 03:25:00,
2013-05-17 22:30:00,81.0,77.4,29.85,SSE,157,10.0,18.0,89,0.00,,,0.00,0.0,WeatherDisplay:10.37,2013-05-18 03:30:00,
2013-05-17 22:35:00,81.0,77.1,29.85,South,178,15.0,22.0,88,0.00,,,0.00,1.0,WeatherDisplay:10.37,2013-05-18 03:35:00,
2013-05-17 22:40:00,81.1,77.2,29.83,South,178,17.0,27.0,88,0.00,,,0.00,1.0,WeatherDisplay:10.37,2013-05-18 03:40:00,
2013-05-17 22:45:00,81.3,77.1,29.83,South,174,14.0,25.0,87,0.00,,,0.00,0.0,WeatherDisplay:10.37,2013-05-18 03:45:00,
2013-05-17 22:50:00,81.3,77.1,29.84,South,177,15.0,26.0,87,0.00,,,0.00,0.0,WeatherDisplay:10.37,2013-05-18 03:50:00,
2013-05-17 22:55:00,81.4,77.2,29.84,South,179,8.0,23.0,87,0.00,,,0.00,1.0,WeatherDisplay:10.37,2013-05-18 03:55:00,
2013-05-17 23:00:00,81.4,77.2,29.85,South,174,7.0,21.0,87,0.00,,,0.00,0.0,WeatherDisplay:10.37,2013-05-18 04:00:00,
2013-05-17 23:01:00,81.4,77.2,29.83,SSE,148,11.5,11.5,87,0.00,CLR,,0.00,1.0,WeatherDisplay:10.37,2013-05-18 04:01:00,
2013-05-17 23:03:00,81.4,77.2,29.83,SSW,196,4.6,4.6,87,0.00,CLR,,0.00,1.0,WeatherDisplay:10.37,2013-05-18 04:03:00,
2013-05-17 23:08:00,81.3,77.1,29.89,South,175,12.7,12.7,87,0.00,CLR,,0.00,1.0,WeatherDisplay:10.37,2013-05-18 04:08:00,
2013-05-17 23:13:00,81.3,77.1,29.82,SSE,168,19.6,19.6,87,0.00,CLR,,0.00,1.0,WeatherDisplay:10.37,2013-05-18 04:13:00,
2013-05-17 23:18:00,81.2,77.0,29.89,SSW,207,17.3,17.3,87,0.00,CLR,,0.00,1.0,WeatherDisplay:10.37,2013-05-18 04:18:00,
2013-05-17 23:24:00,81.1,76.9,29.90,South,183,19.6,19.6,87,0.00,CLR,,0.00,1.0,WeatherDisplay:10.37,2013-05-18 04:24:00,
2013-05-17 23:29:00,81.0,77.1,29.89,SSE,159,24.2,24.2,88,0.00,CLR,,0.00,1.0,WeatherDisplay:10.37,2013-05-18 04:29:00,
2013-05-17 23:34:00,80.9,77.0,29.89,SSW,196,27.0,27.0,88,0.00,CLR,,0.00,1.0,WeatherDisplay:10.37,2013-05-18 04:34:00,
2013-05-17 23:39:00,80.8,76.9,29.82,SSE,160,25.3,25.3,88,0.00,CLR,,0.00,1.0,WeatherDisplay:10.37,2013-05-18 04:39:00,
2013-05-17 23:45:00,80.7,76.8,29.82,SSW,199,19.6,19.6,88,0.00,CLR,,0.00,1.0,WeatherDisplay:10.37,2013-05-18 04:45:00,
2013-05-17 23:50:00,80.6,76.7,29.86,South,180,15.0,28.0,88,0.00,,,0.00,0.0,WeatherDisplay:10.37,2013-05-18 04:50:00,
2013-05-17 23:55:00,80.5,76.6,29.87,South,179,13.0,22.0,88,0.00,,,0.00,0.0,WeatherDisplay:10.37,2013-05-18 04:55:00,